www.pogodaiklimat.ru

Погода и климат >> Архив погоды >> Россия >> Якутия >> Оймякон


АРХИВ ПОГОДЫ в Оймяконе

Время (UTC), дата Ветер
(напр.,м/с)
 
Видим.   Явления Облачность Т
(С)
Тd
(С)
f
(%)
Тe
(С)
Тes
(С)
Комфортность P
(гПа)
Po
(гПа)
Тmin
(С)
Tmax
(С)
R
(мм)
R24
(мм)
S
(см)
06 19.08 ЮВ 4 50 км 6/0
[Ci sp]
+22.9 +4.1 29 +23 +25 комфорт 1016.0 933.5
09 19.08 ЮВ 3 50 км 10/0
[Cc]
+21.5 +3.4 30 +22 +22 комфорт 1015.8 932.9 +23.5
12 19.08 С 1 50 км 10/0
[Ac lent Cc]
+14.6 +5.0 53 +15 +15 тепло 1018.8 933.8
15 19.08 СВ 2 50 км 4/0
[Ci fib]
+7.9 +4.5 79 +6 +6 по сезону 1022.2 935.0
18 19.08 СВ 2 50 км 8/0
[Ac lent Ci fib]
+3.8 +2.0 88 +1 +1 по сезону 1024.2 935.5
21 19.08 В 1 50 км 3/0
[Ci fib]
+8.6 +4.3 74 +8 +9 по сезону 1022.7 935.6 +3.6
00 20.08 ЮВ 3 50 км 8/0
[Ci sp]
+16.4 +5.6 49 +16 +20 тепло 1019.8 935.3
03 20.08 Ю 4 50 км 6/3 1000 м
[Cu hum Ac trans Ci fib]
+20.4 +5.8 38 +21 +25 комфорт 1017.8 934.5
06 20.08 Ю 1 50 км 3/1 1000 м
[Cu hum Ac trans Ci fib]
+21.3 +5.5 36 +22 +26 комфорт 1016.3 933.4
09 20.08 СВ 3 50 км 3/1 1000 м
[Sc diur, vesp Ci fib]
+20.0 +6.2 41 +21 +21 комфорт 1016.6 933.3 +21.8
12 20.08 З 2 50 км 1/0
[Ci fib]
+7.5 +5.5 87 +5 +5 по сезону 1021.1 933.9
15 20.08 СВ 1 50 км 1/0
[Ci fib]
+3.2 +2.4 94 +2 +2 по сезону 1023.1 934.4
18 20.08 СЗ 1 50 км местами туман поземный 1/0
[Ci fib]
+0.3 -0.5 94 -2 -2 прохладно 1025.4 935.5
21 20.08 штиль 0 50 км 8/0
[Ci]
+5.1 +2.1 81 +4 +6 по сезону 1024.1 935.9 -0.6
00 21.08 С 1 50 км 6/0
[Cc]
+13.7 +6.7 63 +14 +20 тепло 1020.7 935.4
03 21.08 СВ 2 50 км 3/0
[Cc]
+21.0 +6.7 39 +23 +30 комфорт 1016.9 933.8
06 21.08 СВ 2 50 км 4/0
[Ac lent Ci fib]
+23.0 +6.4 34 +24 +27 комфорт 1014.6 932.3
09 21.08 С 1 50 км 1/1 1500 м
[Sc Ac lent Ci fib]
+20.9 +9.3 47 +24 +24 комфорт 1014.5 931.7 +23.0
12 21.08 З 3 50 км 3/3 1500 м
[Sc]
+10.4 +6.5 77 +8 +8 по сезону 1018.2 931.8
15 21.08 штиль 0 50 км 1/1 1500 м
[Sc]
+4.7 +4.2 97 +4 +4 по сезону 1019.9 931.9
18 21.08 З 1 50 км 1/1 1500 м
[Sc]
+2.7 +2.5 99 +1 +1 по сезону 1021.5 932.8
21 21.08 штиль 0 50 км 8/4 1500 м
[Sc Ac trans Ci fib]
+4.6 +3.9 95 +3 +4 прохладно 1021.1 933.0 +1.5
00 22.08 штиль 0 50 км 8/1 1000 м
[Cu hum Ac trans Ci fib]
+14.8 +7.8 63 +15 +19 тепло 1017.2 932.5
03 22.08 штиль 0 50 км 8/1 1000 м
[Cu med, cong Cc]
+21.7 +7.4 40 +23 +31 комфорт 1013.8 931.3
06 22.08 С 1 50 км осадки на расстоянии 8/1 1000 м
[Cb cap Ac lent Ci fib]
+24.7 +7.6 34 +25 +28 комфорт 1010.9 929.4
09 22.08 В 2 50 км осадки на расстоянии 5/3 1000 м
[Cb calv Ac lent Ci fib]
+23.9 +8.4 37 +24 +25 комфорт 1010.5 928.8 +25.1
12 22.08 штиль 0 50 км осадки на расстоянии 8/3 1000 м
[Cb cap Ci fib]
+11.0 +8.1 82 +10 +10 тепло 1014.7 929.2
15 22.08 штиль 0 50 км 9/4 1000 м
[Cb cap Ci fib]
+9.7 +7.1 84 +9 +9 тепло 1016.1 930.0
18 22.08 штиль 0 50 км 8/3 1000 м
[Cb cap Ci fib]
+6.5 +6.1 97 +5 +5 тепло 1017.9 930.6
21 22.08 штиль 0 50 км 9/1 1000 м
[Sc Ac lent Ci fib]
+7.8 +6.5 91 +7 +8 по сезону 1017.8 931.0 +4.0
00 23.08 В 2 50 км 10/0
[Ac trans Cs]
+16.4 +8.4 59 +17 +21 тепло 1014.6 930.5
03 23.08 В 2 50 км осадки на расстоянии 10/4 1000 м
[Cb cap Ac trans Cs]
+20.3 +8.5 47 +22 +25 комфорт 1012.4 929.5
06 23.08 СВ 2 50 км 6/3 1000 м
[Cb cap Ac trans Ci fib]
+21.9 +8.8 43 +23 +25 комфорт 1010.3 928.2
09 23.08 В 3 50 км гроза без осадков 10/3 1000 м
[Cb cap Ac trans Cc]
+19.8 +10.4 55 +21 +21 комфорт 1009.7 927.1 +22.5
12 23.08 СЗ 1 50 км зарница {гроза} 10/3 1000 м
[Cb cap Cs]
+12.7 +7.4 70 +13 +13 тепло 1012.3 927.4
15 23.08 З 3 50 км 6/1 1000 м
[Sc Ac trans Ci fib]
+9.4 +6.4 82 +7 +7 тепло 1013.8 927.8
18 23.08 Ю 1 50 км местами туман поземный 8/1 1500 м
[Sc Ac lent Ci fib]
+4.7 +3.7 93 +3 +3 по сезону 1015.7 928.1
21 23.08 штиль 0 50 км 10/3 1000 м
[Cb cap Ac trans Ci]
+6.3 +4.7 89 +5 +6 по сезону 1015.4 928.4 +3.5
00 24.08 Ю 1 50 км 10/4 1000 м
[Cb cap Ac trans Ci fib]
+16.7 +8.0 56 +18 +20 тепло 1011.3 927.6
03 24.08 СЗ 2 50 км 10/3 1000 м
[Cb cap Cs]
+19.9 +7.7 45 +21 +26 комфорт 1008.8 926.3
06 24.08 Ю 3 50 км осадки на расстоянии 10/3 1000 м
[Cb cap Cs]
+20.6 +6.1 39 +22 +24 комфорт 1006.9 924.5
09 24.08 Ю 1
{14}
50 км в посл. час ливневой дождь 10/8 1000 м
[Cb cap Ci fib]
+14.4 +11.4 82 +15 +15 тепло 1009.4 925.3 +21.3 1
12 24.08 С 3 50 км {ливн. осадки} 9/9 1000 м
[Cb cap]
+10.9 +9.9 94 +9 +9 тепло 1010.7 925.5
15 24.08 СВ 2 50 км 9/9 1000 м
[Cb cap]
+8.5 +7.8 95 +6 +6 по сезону 1011.2 925.3
18 24.08 штиль 0 500 м туман 9/9 1000 м
[Sc]
+6.8 +6.6 99 +6 +6 тепло 1011.5 925.0
21 24.08 З 1 500 м туман 6/6 1000 м
[Sc]
+7.1 +7.1 100 +6 +6 по сезону 1011.4 925.0 +5.8
00 25.08 СВ 2 50 км {туман} 9/1 1500 м
[Cu med, cong Ac trans Ci fib]
+12.7 +10.2 85 +12 +15 тепло 1008.8 924.2
03 25.08 ЮЗ 4 50 км слаб. ливневой дождь 10/6 1000 м
[Cb cap Ci fib]
+14.7 +9.7 72 +14 +15 тепло 1006.6 922.7
06 25.08 В 1 50 км {ливн. осадки} 9/6 1000 м
[Cb cap Ac trans Ci fib]
+18.6 +8.1 50 +20 +21 тепло 1003.3 920.8
09 25.08 З 3 50 км 10/8 1000 м
[Cb cap Ac trans Ci fib]
+15.1 +9.0 67 +14 +14 тепло 1004.0 920.3 +19.0 1
12 25.08 З 2 50 км {ливн. осадки} 10/4 1000 м
[Sc Ac trans Ci fib]
+11.8 +9.2 84 +11 +11 тепло 1005.4 920.8
15 25.08 З 2 50 км слаб. ливневой дождь 10/5 1000 м
[Cb cap Ac trans Ci fib]
+10.4 +9.2 92 +9 +9 тепло 1005.7 920.8
18 25.08 штиль 0 50 км в посл. час ливневой дождь 10/8 1320 м
[Cb cap Ac trans Ci fib]
+9.3 +8.2 93 +8 +8 тепло 1005.7 920.4
21 25.08 З 1 50 км 10/10 800 м
[Cb cap]
+10.3 +8.9 91 +10 +10 тепло 1005.4 920.4 +9.2 0.3
00 26.08 З 1 50 км слаб. ливневой дождь 10/8 600 м
[Cb cap Ac und]
+11.6 +8.8 83 +11 +12 тепло 1004.8 920.3
03 26.08 штиль 0 50 км в посл. час ливневой дождь 9/8 600 м
[Cb cap Ac trans]
+13.0 +9.7 80 +13 +14 по сезону 1003.9 919.8

 

Местоположение метеостанции Оймякон (Якутия, Россия): широта 63.25 долгота 143.10 высота над уровнем моря 740 м.

В архиве по умолчанию представлена погода в Оймяконе за последнюю неделю. Архивные данные за месяц целиком и за предыдущие месяцы, начиная с января 2011 года, Вы можете получить, выбрав интересующий диапазон дат из раскрывающегося списка и нажав кнопку "Ввод!".


*Определитесь, кто Вы:
робот инопланетянин человек

Внимание! Время в таблицах - всемирное. Для получения местного времени необходимо прибавить поправку, которая равна 10 ч.

Смотрите также архив погоды в соседних городах и на ближайших метеорологических станциях:

Погода в Агаякане (Якутия, Россия) (71 км)
Погода в Юртах (Якутия, Россия) (110 км)
Погода в Делянкире (Якутия, Россия) (140 км)
Погода в Усть-Нере (Якутия, Россия) (142 км)
Погода в Восточной (Якутия, Россия) (175 км)
Погода в Сусумане (Магаданская область, Россия) (258 км)
Погода в Колымской (Магаданская область, Россия) (278 км)
Погода в Уеге (Хабаровский край, Россия) (282 км)
Погода в Теплом Ключе (Якутия, Россия) (322 км)
Погода в Ягодной (Магаданская область, Россия) (340 км)

Пояснения к столбцам:

Ветер - указаны скорость ветра в м/с - средняя за 10 мин, порывы в срок и между сроками (в фигурных скобках) и направление, откуда дует ветер: С - северный, СВ - северо-восточный, В - восточный, ЮВ - юго-восточный, Ю - южный, ЮЗ - юго-западный, З - западный, СЗ - северо-западный.
Видимость - горизонтальная дальность видимости в метрах или километрах. При видимости от 1 до 10 км при отсутствии осадков обычно наблюдается дымка, при ухудшении видимости до 1 км и менее - туман. В сухую погоду видимость может ухудшаться дымом, пылью или мглою.
Явления - указаны атмосферные явления, наблюдавшиеся в срок или в последний час перед сроком; фигурными скобками обозначены явления, наблюдавшиеся между сроками (за 1-3 часа до срока); квадратными скобками обозначены град или гололедные отложения с указанием их диаметра в мм.
Облачность - указаны через наклонную черту общая и нижняя облачность в баллах и высота нижней границы облаков в метрах; квадратными скобками обозначены формы облаков: Ci - перистые, Cs - перисто-слоистые, Cc - перисто-кучевые, Ac - высококучевые, As - высокослоистые, Sc - слоисто-кучевые, Ns - слоисто-дождевые, Cu - кучевые, Cb - кучево-дождевые. Подробнее классификацию облаков см. в Атласе облаков (PDF).
T - Температура воздуха - температура, измеренная на высоте 2 м над землей.
Td - Температура точки росы - температура, при понижении до которой содержащийся в воздухе водяной пар достигнет насыщения.
f - Относительная влажность воздуха - влажноcть воздуха, измеренная на высоте 2 м над землей.
Te - Эффективная температура - температура, которую ощущает одетый по сезону человек в тени. Характеристика душности погоды. При расчете учитывается влияние влажности воздуха и скорости ветра на теплоощущения человека.
Tes - Эффективная температура на солнце - температура, которую ощущает человек, с поправкой на солнечный нагрев. Характеристика знойности погоды. Зависит от высоты солнца над горизонтом, облачности и скорости ветра. Ночью, в пасмурную погоду, а также при ветре 12 м/с и более поправка равна нулю.
P - Атмосферное давление - приведенное к уровню моря атмосферное давление.
Po - Атмосферное давление - измеренное на уровне метеостанции атмосферное давление.
Tmin - Минимальная температура - минимум температуры воздуха на высоте 2 м над землей.
Tmax - Максимальная температура - максимум температуры воздуха на высоте 2 м над землей.
R - Количество осадков - Количество выпавших осадков за период времени, мм. При наведении курсора мыши на число - период времени, за который выпало указанное количество осадков.
R24 - Количество осадков - Количество выпавших осадков за 24 часа, мм.
S - Снежный покров - Высота снежного покрова, см. При наведении курсора мыши на число - состояние снежного покрова и степень покрытия местности в баллах.